User: anonymous   Login
Location: Newark
(55.4390°N, 25.0170°E)
Time: 17:40:21
(UTC+00:00)
Language:

N. Korean satellite - Orbit

View from above orbital plane
View from above orbital plane
View from above satellite
View from above satellite

Ground track
Ground track

The orbit data is extracted from the following two-line orbital elements,

1 39026U 12072A   22337.86396246  .00018893  00000-0  42558-3 0  9999
2 39026  97.2788 327.4166 0023375 269.4723  90.3847 15.43026471554980
Epoch (UTC): 03 December 2022 20:44:06
Eccentricity: 0.0023375
inclination: 97.2788°
perigee height: 421 km
apogee height: 453 km
right ascension of ascending node: 327.4166°
argument of perigee: 269.4723°
revolutions per day: 15.43026471
mean anomaly at epoch: 90.3847°
orbit number at epoch: 55498

The dashed part of the orbit path shows where the satellite is in the earth's shadow,  

DLR